SR1WXW Weather Reports


time (UTC)temp
F
wind
direction
speed
knots
gust
knots
rain 1hr
in
rain 24hr
in
rain mn
in
humidity
%
barometer
mb
20260507035256 41 0 0.9 7.0 0.00 0.91 0.00 93 1006.3
20260507034756 41 0 1.7 3.5 0.00 0.91 0.00 93 1006.2
20260507034256 41 337 1.7 3.5 0.00 0.91 0.00 93 1006.1
20260507033756 42 0 0.0 3.5 0.00 0.91 0.00 93 1006.0
20260507033256 42 0 1.7 4.3 0.00 0.91 0.00 93 1006.0
20260507032756 42 0 2.6 4.3 0.00 0.91 0.00 93 1006.1
20260507032256 42 0 0.9 2.6 0.00 0.91 0.00 93 1006.1
20260507031756 42 22 0.0 3.5 0.00 0.91 0.00 93 1006.1
20260507031256 42 0 0.9 4.3 0.00 0.91 0.00 93 1006.1
20260507030756 42 0 0.9 3.5 0.00 0.91 0.00 93 1006.0
20260507030256 42 0 0.9 3.5 0.00 0.91 0.00 93 1006.0
20260507025756 42 0 0.9 2.6 0.00 0.97 0.00 93 1006.0
20260507025256 42 0 1.7 3.5 0.00 0.97 0.00 93 1005.8
20260507024756 42 22 1.7 1.7 0.00 0.97 0.00 93 1005.8
20260507024256 42 22 0.0 2.6 0.00 0.97 0.00 93 1005.7
20260507023756 42 0 1.7 3.5 0.00 0.97 0.00 93 1005.7
20260507023256 42 22 1.7 2.6 0.00 0.97 0.00 93 1005.8
20260507022756 42 0 2.6 5.2 0.00 0.97 0.00 93 1005.9
20260507022256 41 0 0.9 3.5 0.00 0.97 0.00 93 1005.9
20260507021756 41 0 1.7 3.5 0.00 0.97 0.00 93 1006.0
20260507021256 41 45 1.7 2.6 0.00 0.97 0.00 93 1006.0
20260507020756 42 22 1.7 1.7 0.00 0.97 0.00 93 1006.0
20260507020256 42 0 0.9 3.5 0.00 0.97 0.00 93 1006.0
20260507015756 42 22 0.9 2.6 0.00 0.97 0.00 93 1005.9
20260507015256 42 22 1.7 2.6 0.00 0.97 0.00 93 1005.9
20260507014756 42 0 0.9 3.5 0.00 0.97 0.00 93 1005.8
20260507014256 42 315 2.6 2.6 0.00 0.97 0.00 94 1005.9
20260507013757 42 22 0.9 2.6 0.00 0.97 0.00 94 1005.8
20260507013256 42 0 1.7 1.7 0.00 0.97 0.00 94 1005.7
20260507012756 42 337 1.7 4.3 0.00 0.97 0.00 94 1005.6
20260507012256 42 0 0.9 1.7 0.00 0.97 0.00 94 1005.4
20260507011756 42 22 1.7 3.5 0.00 0.97 0.00 94 1005.6
20260507011256 42 45 0.0 2.6 0.00 0.97 0.00 94 1005.6
20260507010756 42 337 1.7 2.6 0.00 0.97 0.00 94 1005.6
20260507010256 42 45 0.0 2.6 0.00 0.97 0.00 94 1005.6
20260507005756 41 0 0.0 2.6 0.00 0.97 0.00 94 1005.6
20260507005256 41 45 0.0 3.5 0.00 0.97 0.00 94 1005.4
20260507004756 41 22 0.9 3.5 0.00 0.97 0.00 94 1005.4
20260507004256 41 22 0.9 4.3 0.00 0.97 0.00 94 1005.3
20260507003756 41 22 1.7 2.6 0.00 0.97 0.00 94 1005.2
20260507003256 41 315 1.7 3.5 0.00 0.97 0.00 94 1005.2
20260507002756 41 22 0.9 2.6 0.00 0.97 0.00 94 1005.2
20260507002256 41 45 1.7 2.6 0.00 0.97 0.00 94 1005.3
20260507001756 41 22 1.7 2.6 0.00 0.97 0.00 94 1005.3
20260507001256 41 0 0.9 4.3 0.00 0.97 0.00 94 1005.1
20260507000756 41 22 1.7 3.5 0.00 0.97 0.00 94 1005.2
20260507000258 41 0 1.7 4.3 0.00 0.97 0.00 94 1005.1
20260506235756 41 22 3.5 3.5 0.00 0.97 0.00 94 1005.0
20260506235257 41 0 2.6 4.3 0.00 0.97 0.00 94 1005.1
20260506234757 41 22 1.7 5.2 0.00 0.97 0.00 94 1005.0
20260506234257 41 0 2.6 4.3 0.00 0.97 0.00 94 1004.9
20260506233757 41 22 1.7 5.2 0.00 0.97 0.00 94 1004.9
20260506233257 41 22 3.5 3.5 0.00 0.97 0.00 94 1004.9
20260506232757 41 0 3.5 5.2 0.00 0.97 0.00 94 1004.8
20260506232257 41 22 3.5 5.2 0.00 0.97 0.00 94 1004.7
20260506231757 42 22 3.5 3.5 0.00 0.97 0.00 94 1004.8
20260506231257 42 22 3.5 4.3 0.00 0.97 0.00 94 1004.8
20260506230757 42 337 0.9 3.5 0.00 0.97 0.00 94 1004.9
20260506230257 42 22 4.3 4.3 0.00 0.97 0.00 94 1004.7
20260506225757 42 45 4.3 4.3 0.00 0.97 0.00 94 1004.8
20260506225257 42 22 3.5 3.5 0.00 0.97 0.00 94 1005.0
20260506224757 42 157 0.0 2.6 0.00 0.97 0.00 94 1005.1
20260506224257 42 0 0.9 3.5 0.00 0.97 0.00 94 1005.1
20260506223757 42 0 0.9 3.5 0.00 0.97 0.00 94 1004.9
20260506223257 42 22 0.0 2.6 0.00 0.97 0.00 94 1005.0
20260506222757 42 0 1.7 2.6 0.00 0.97 0.00 94 1005.0
20260506222257 42 22 0.9 6.1 0.00 0.97 0.00 94 1005.0
20260506221757 42 22 1.7 3.5 0.00 0.97 0.00 94 1005.0
20260506221257 42 22 3.5 3.5 0.00 0.97 0.00 94 1005.0
20260506220757 42 22 2.6 3.5 0.00 0.97 0.00 94 1004.9
20260506220257 42 0 2.6 4.3 0.00 0.97 0.00 94 1004.7
20260506215757 42 0 3.5 3.5 0.00 0.97 0.00 94 1004.8
20260506215257 42 22 1.7 6.1 0.00 0.97 0.00 94 1004.8
20260506214757 42 337 0.9 3.5 0.00 0.97 0.00 94 1004.8
20260506214257 42 22 2.6 3.5 0.00 0.97 0.00 94 1004.8
20260506213757 41 0 1.7 3.5 0.00 0.97 0.00 94 1004.8
20260506213257 42 22 3.5 4.3 0.00 0.97 0.00 94 1004.7
20260506212757 42 22 1.7 3.5 0.00 0.97 0.00 94 1004.4
20260506212257 42 22 0.9 3.5 0.00 0.97 0.00 94 1004.3
20260506211757 42 22 1.7 4.3 0.00 0.97 0.00 94 1004.5
20260506211257 42 22 2.6 2.6 0.00 0.97 0.00 94 1004.4
20260506210757 42 0 0.9 3.5 0.00 0.97 0.00 94 1004.5
20260506210257 42 22 0.0 1.7 0.00 0.97 0.00 94 1004.4
20260506205757 42 0 1.7 2.6 0.00 0.97 0.00 94 1004.3
20260506205257 42 0 0.9 2.6 0.00 0.97 0.00 94 1004.1
20260506204757 42 45 1.7 6.1 0.00 0.97 0.00 94 1004.3
20260506204257 42 0 1.7 7.0 0.00 0.97 0.00 94 1004.1
20260506203757 42 0 0.9 4.3 0.00 0.97 0.00 94 1004.1
20260506203257 42 0 1.7 2.6 0.00 0.97 0.00 94 1004.3
20260506202757 42 22 0.9 2.6 0.00 0.97 0.00 94 1004.3
20260506202257 42 315 1.7 1.7 0.00 0.97 0.00 94 1004.1
20260506201757 42 0 0.0 2.6 0.00 0.97 0.00 94 1004.1
20260506201257 42 22 0.0 2.6 0.00 0.97 0.00 94 1004.1
20260506200757 42 0 1.7 1.7 0.00 0.97 0.00 94 1004.0
20260506200257 42 22 0.9 1.7 0.00 0.97 0.00 94 1004.0
20260506195757 42 0 0.9 3.5 0.00 0.97 0.00 94 1004.0
20260506195257 42 0 0.9 3.5 0.00 0.97 0.00 94 1004.0
20260506194757 42 337 1.7 3.5 0.00 0.97 0.00 94 1004.1
20260506194257 42 0 1.7 1.7 0.00 0.97 0.00 94 1004.1
20260506193757 42 0 0.9 1.7 0.00 0.97 0.00 94 1004.0
20260506193257 42 22 0.0 3.5 0.00 0.97 0.00 93 1003.9
20260506192757 42 337 0.9 1.7 0.00 0.97 0.00 93 1003.8
20260506192257 42 67 1.7 2.6 0.00 0.97 0.00 93 1003.6
20260506191757 42 0 0.9 3.5 0.00 0.97 0.00 93 1003.4
20260506191257 42 0 0.9 1.7 0.00 0.97 0.00 93 1003.4
20260506190757 42 0 0.0 1.7 0.00 0.97 0.00 93 1003.5
20260506190257 42 0 1.7 1.7 0.00 0.97 0.00 93 1003.5
20260506185757 42 22 0.9 1.7 0.00 0.97 0.00 93 1003.5
20260506185257 42 0 0.9 2.6 0.00 0.97 0.00 93 1003.5
20260506184757 42 22 0.0 1.7 0.00 0.97 0.00 93 1003.4
20260506184257 42 0 0.9 1.7 0.00 0.97 0.00 93 1003.4
20260506183757 42 0 0.0 0.9 0.00 0.97 0.00 93 1003.5
20260506183257 42 0 0.9 2.6 0.00 0.97 0.00 93 1003.4
20260506182757 42 0 0.0 1.7 0.00 0.97 0.00 93 1003.4
20260506182257 43 315 0.9 3.5 0.00 0.97 0.00 93 1003.4
20260506181757 43 22 0.0 1.7 0.00 0.97 0.00 93 1003.4
20260506181257 43 337 1.7 1.7 0.00 0.97 0.00 93 1003.3
20260506180757 43 22 0.0 2.6 0.00 0.97 0.00 93 1003.4
20260506180257 43 337 0.0 2.6 0.00 0.97 0.00 93 1003.3
20260506175757 43 0 0.0 1.7 0.00 0.97 0.00 93 1003.3
20260506175257 43 22 1.7 1.7 0.00 0.97 0.00 94 1003.3
20260506174757 43 0 0.9 1.7 0.00 0.97 0.00 94 1003.1
20260506174257 43 0 0.0 1.7 0.00 0.97 0.00 94 1003.0
20260506173757 43 315 0.9 1.7 0.00 0.97 0.00 94 1003.0
20260506173257 43 0 0.0 1.7 0.00 0.97 0.00 94 1003.1
20260506172757 43 270 1.7 2.6 0.00 0.97 0.00 94 1003.0
20260506172257 43 0 0.9 1.7 0.00 0.97 0.00 94 1003.0
20260506171757 44 292 2.6 2.6 0.00 0.97 0.00 94 1003.0
20260506171257 44 270 0.9 3.5 0.00 0.97 0.00 94 1002.9
20260506170757 44 292 1.7 1.7 0.00 0.97 0.00 94 1002.9
20260506170257 44 0 1.7 1.7 0.00 0.97 0.00 94 1002.8
20260506165757 44 337 0.9 2.6 0.00 0.97 0.00 94 1002.6
20260506165257 44 315 0.0 1.7 0.00 0.97 0.00 94 1002.6
20260506164757 44 292 1.7 1.7 0.00 0.97 0.00 94 1002.6
20260506164258 44 337 0.9 2.6 0.00 0.97 0.00 94 1002.5
20260506163758 45 22 0.0 2.6 0.00 0.97 0.00 94 1002.5
20260506163258 45 0 0.9 1.7 0.00 0.97 0.00 94 1002.5
20260506162758 45 0 0.9 1.7 0.00 0.97 0.00 94 1002.4
20260506162258 45 270 1.7 1.7 0.00 0.97 0.00 94 1002.4
20260506161758 45 315 0.9 7.0 0.00 0.97 0.00 94 1002.4
20260506161258 45 337 1.7 1.7 0.00 0.97 0.00 94 1002.3
20260506160758 45 0 0.9 1.7 0.02 0.97 0.00 94 1002.3
20260506160258 45 0 1.7 2.6 0.02 0.97 0.00 94 1002.2
20260506155758 45 0 0.9 2.6 0.02 0.97 0.00 94 1002.2
20260506155258 45 0 1.7 3.5 0.02 0.97 0.00 94 1002.2
20260506154758 45 22 1.7 3.5 0.02 0.97 0.00 94 1002.2
20260506154258 45 22 1.7 3.5 0.02 0.97 0.00 94 1002.3
20260506153758 45 22 0.9 3.5 0.02 0.97 0.00 94 1002.3
20260506153258 45 0 0.9 3.5 0.02 0.97 0.00 94 1002.3
20260506152758 45 22 0.9 2.6 0.02 0.97 0.00 94 1002.2
20260506152258 45 22 0.0 2.6 0.02 0.97 0.00 94 1002.2
20260506151758 45 0 0.9 1.7 0.02 0.97 0.00 94 1002.2
20260506151258 46 0 1.7 2.6 0.02 0.97 0.00 94 1002.2
20260506150758 46 22 1.7 2.6 0.00 0.95 0.00 94 1002.2
20260506150303 46 315 1.7 3.5 0.00 0.95 0.00 94 1002.0
20260506145758 46 22 1.7 1.7 0.00 0.95 0.00 94 1001.9
20260506145258 46 22 1.7 2.6 0.00 0.95 0.00 94 1001.9
20260506144758 46 0 1.7 4.3 0.00 0.95 0.00 94 1001.8
20260506144258 46 22 0.9 5.2 0.00 0.95 0.00 94 1001.8
20260506143758 46 0 0.0 1.7 0.00 0.95 0.00 94 1001.9
20260506143258 46 337 0.9 2.6 0.00 0.95 0.00 94 1002.1
20260506142758 46 315 1.7 3.5 0.00 0.95 0.00 94 1002.0
20260506142258 46 292 2.6 4.3 0.00 0.95 0.00 94 1001.9
20260506141758 46 270 1.7 1.7 0.00 0.95 0.00 94 1001.7
20260506141258 46 292 1.7 2.6 0.00 0.95 0.00 94 1001.7
20260506140758 46 270 0.9 2.6 0.00 0.95 0.00 94 1001.7
20260506140258 46 315 2.6 2.6 0.00 0.95 0.00 94 1001.7
20260506135758 46 315 0.9 1.7 0.00 0.95 0.00 94 1001.7
20260506135258 46 292 1.7 1.7 0.00 0.95 0.00 93 1001.6
20260506134758 46 292 1.7 2.6 0.00 0.95 0.00 93 1001.7
20260506134258 46 0 1.7 1.7 0.00 0.95 0.00 93 1001.8
20260506133758 46 270 0.0 1.7 0.00 0.95 0.00 93 1001.7
20260506133258 46 315 0.0 0.9 0.00 0.95 0.00 93 1001.7
20260506132758 46 292 0.0 0.9 0.00 0.95 0.00 93 1001.6
20260506132258 46 315 0.0 2.6 0.00 0.95 0.00 93 1001.7
20260506131758 46 292 1.7 1.7 0.00 0.95 0.00 93 1001.7
20260506131258 46 292 0.0 2.6 0.00 0.95 0.00 93 1001.5
20260506130758 46 292 0.9 0.9 0.00 0.95 0.00 93 1001.4
20260506130258 46 315 0.0 2.6 0.00 0.95 0.00 93 1001.3
20260506125758 46 315 0.9 2.6 0.00 0.97 0.00 93 1001.4
20260506125258 46 315 0.0 0.9 0.00 0.97 0.00 93 1001.5
20260506124758 46 315 0.0 1.7 0.00 0.97 0.00 93 1001.4
20260506124258 46 337 0.0 0.0 0.00 0.97 0.00 93 1001.4
20260506123758 46 315 0.0 0.9 0.00 0.97 0.00 93 1001.3
20260506123258 46 0 0.0 0.9 0.02 0.97 0.00 93 1001.2
20260506122758 46 0 0.0 1.7 0.02 0.97 0.00 93 1001.4
20260506122258 46 0 0.0 0.9 0.02 0.97 0.00 93 1001.2
20260506121758 46 45 0.9 1.7 0.02 0.97 0.00 93 1001.2
20260506121258 46 0 0.0 0.9 0.02 0.97 0.00 93 1001.2
20260506120758 46 22 0.9 0.9 0.02 0.97 0.00 93 1001.3
20260506120258 46 22 0.0 1.7 0.02 0.97 0.00 93 1001.3
20260506115758 46 0 0.0 1.7 0.02 1.01 0.00 93 1001.2
20260506115258 46 0 0.0 1.7 0.02 1.01 0.00 93 1001.3
20260506114758 46 0 0.0 1.7 0.02 1.01 0.00 93 1001.3
20260506114258 46 22 0.0 1.7 0.02 1.01 0.00 93 1001.3
20260506113758 46 45 0.0 0.9 0.00 0.99 0.00 93 1001.2
20260506113258 46 0 0.9 1.7 0.00 0.99 0.00 93 1001.2
20260506112758 46 0 0.0 0.9 0.02 0.99 0.00 93 1001.2
20260506112258 46 22 0.0 1.7 0.02 0.99 0.00 93 1001.1
20260506111758 46 0 0.0 1.7 0.02 0.99 0.00 93 1001.1
20260506111258 46 0 0.0 1.7 0.02 0.99 0.00 93 1001.1
20260506110758 46 45 0.0 2.6 0.02 0.99 0.00 93 1001.2
20260506110258 46 22 1.7 3.5 0.02 0.99 0.00 93 1001.2
20260506105758 46 0 0.9 2.6 0.02 1.01 0.00 93 1001.0
20260506105258 46 22 0.0 2.6 0.02 1.01 0.00 93 1000.9
20260506104758 46 22 1.7 1.7 0.02 1.01 0.00 93 1000.9
20260506104258 45 0 0.9 0.9 0.02 1.01 0.00 93 1000.9
20260506103758 45 0 0.9 2.6 0.02 1.01 0.00 93 1001.0
20260506103258 45 0 0.0 1.7 0.02 1.01 0.00 93 1000.9
20260506102758 45 0 0.9 2.6 0.00 0.99 0.00 93 1000.9
20260506102258 45 22 0.9 1.7 0.00 0.99 0.00 93 1001.0
20260506101758 45 22 0.9 1.7 0.00 0.99 0.00 93 1001.0
20260506101258 45 22 1.7 4.3 0.00 0.99 0.00 93 1001.0
20260506100758 45 0 4.3 4.3 0.00 0.99 0.00 93 1001.0
20260506100258 45 22 0.0 3.5 0.00 0.99 0.00 93 1000.9
20260506095758 45 22 0.9 1.7 0.00 1.10 0.00 93 1000.9
20260506095259 45 22 0.9 2.6 0.00 1.10 0.00 93 1000.8
20260506094759 46 22 0.9 3.5 0.00 1.10 0.00 93 1000.9
20260506094259 46 22 0.9 2.6 0.00 1.10 0.00 93 1000.9
20260506093759 46 0 1.7 2.6 0.00 1.10 0.00 93 1000.8
20260506093259 46 67 1.7 2.6 0.02 1.10 0.00 93 1000.8
20260506092759 46 0 1.7 1.7 0.02 1.10 0.00 93 1000.8
20260506092259 46 22 1.7 1.7 0.02 1.10 0.00 93 1000.8
20260506091759 46 22 0.0 3.5 0.04 1.10 0.00 93 1000.8
20260506091259 46 22 1.7 3.5 0.06 1.10 0.00 93 1000.8
20260506090759 46 22 3.5 3.5 0.10 1.10 0.00 93 1000.8
20260506090259 46 45 0.9 2.6 0.12 1.10 0.00 93 1000.7
20260506085759 46 22 1.7 1.7 0.14 1.16 0.00 93 1000.8
20260506085259 46 22 1.7 1.7 0.16 1.16 0.00 93 1000.7
20260506084759 46 67 1.7 2.6 0.22 1.16 0.00 93 1000.6
20260506084259 46 22 0.9 2.6 0.24 1.16 0.00 93 1000.7
20260506083759 46 45 0.9 2.6 0.28 1.16 0.00 93 1000.6
20260506083259 46 112 1.7 1.7 0.32 1.14 0.00 93 1000.8
20260506082759 46 22 0.0 2.6 0.34 1.14 0.00 93 1000.8
20260506082259 46 22 0.9 2.6 0.36 1.14 0.00 93 1000.7
20260506081759 46 45 2.6 2.6 0.36 1.12 0.00 93 1000.8
20260506081259 46 0 2.6 2.6 0.34 1.08 0.00 93 1000.8
20260506080759 45 0 1.7 4.3 0.32 1.03 0.00 93 1000.9
20260506080259 45 0 0.9 3.5 0.32 1.01 0.00 93 1000.9
20260506073259 45 22 0.0 1.7 0.18 0.81 0.00 92 1000.9
20260506072759 45 45 0.0 2.6 0.18 0.79 0.00 92 1000.8
20260506072259 45 0 2.6 2.6 0.16 0.75 0.00 92 1001.0
20260506071759 45 45 1.7 3.5 0.14 0.73 0.00 92 1001.0
20260506071259 45 22 1.7 1.7 0.14 0.73 0.00 92 1000.9
20260506070759 45 0 0.0 2.6 0.16 0.71 0.00 92 1000.8
20260506070259 45 0 0.9 1.7 0.14 0.67 0.00 92 1000.8
20260506062259 45 22 0.0 2.6 0.14 0.59 0.00 92 1000.9
20260506061759 45 0 0.9 3.5 0.14 0.59 0.00 92 1001.1
20260506061259 45 45 0.9 2.6 0.14 0.57 0.00 92 1001.1
20260506060759 45 45 1.7 2.6 0.14 0.55 0.00 92 1001.1
20260506060259 45 22 0.9 2.6 0.12 0.52 0.00 92 1001.1
20260506051259 46 22 1.7 1.7 0.08 0.42 0.00 91 1001.7
20260506050759 46 22 0.0 0.0 0.08 0.40 0.00 91 1001.7
20260506050259 46 135 0.0 0.0 0.06 0.38 0.00 91 1001.8
20260506044759 46 337 1.7 2.6 0.10 0.36 0.00 91 1001.8
20260506044259 46 67 0.0 1.7 0.12 0.36 0.00 91 1001.6
20260506043759 47 45 0.0 2.6 0.12 0.36 0.00 91 1001.7
20260506043259 47 45 0.0 4.3 0.12 0.36 0.00 91 1001.7
20260506042759 47 22 1.7 2.6 0.10 0.34 0.00 91 1001.7
20260506042259 47 22 2.6 3.5 0.10 0.34 0.00 91 1001.6
20260506041759 47 22 0.0 2.6 0.10 0.34 0.00 91 1001.5
20260506041259 48 22 1.7 3.5 0.08 0.32 0.00 91 1001.5
20260506040759 48 45 2.6 3.5 0.08 0.32 0.00 91 1001.5
20260506040259 48 45 2.6 4.3 0.06 0.30 0.00 91 1001.4
20260506035759 48 45 1.7 4.3 0.04 0.28 0.00 91 1001.6